Mount Ida, AR

1:39 PM CDT on August 30, 2016 (GMT -0500)
Mount Ida

Weather History for KMWT - December, 2012

Change the Weather History Date:

Friday, December 14, 2012

  Actual Average (KHOT) Record (KHOT)
Temperature  
Mean Temperature 40 °F -  
Max Temperature 54 °F 54 °F 74 °F (1975)
Min Temperature 26 °F 33 °F 12 °F (1958)
Degree Days  
Heating Degree Days 25    
Moisture  
Dew Point 31 °F    
Average Humidity 68    
Maximum Humidity 92    
Minimum Humidity 35    
Precipitation  
Precipitation 0.07 in - - ()
Sea Level Pressure  
Sea Level Pressure 30.13 in    
Wind  
Wind Speed 1 mph (SE)    
Max Wind Speed 8 mph    
Max Gust Speed -    
Visibility 10 miles    
Events Rain    
Averages and records for this station are not official NWS values.
T = Trace of Precipitation, MM = Missing Value Source: NWS Daily Summary

Daily Weather History Graph

Daily Weather History Graph

Search for Another Location

Airport or City:

Trip Planner

Search our weather history database for the weather conditions in past years. The results will help you decide how hot, cold, wet, or windy it might be!

Date:

Astronomy

Dec. 14, 2012 Rise Set
Actual Time 7:13 AM CST 5:05 PM CST
Civil Twilight 6:45 AM CST 5:33 PM CST
Nautical Twilight 6:14 AM CST 6:04 PM CST
Astronomical Twilight 5:43 AM CST 6:35 PM CST
Moon 8:20 AM CST (12/14) 6:55 PM CST (12/14)
Length of Visible Light 10h 47m
Length of Day
9h 51m
Waxing Crescent, 3% of the Moon is Illuminated
Dec 14
Waxing Crescent
Dec 19
First Quarter
Dec 28
Full
Jan 4
Last Quarter
Jan 11
New

Hourly Weather History & Observations

Time (CST) Temp. Dew Point Humidity Pressure Visibility Wind Dir Wind Speed Gust Speed Precip Events Conditions
12:53 AM 28.0 °F 25.0 °F 88% 30.25 in 10.0 mi Calm Calm - N/A   Clear
1:53 AM 27.0 °F 24.1 °F 89% 30.24 in 10.0 mi Calm Calm - N/A   Clear
2:53 AM 27.0 °F 24.1 °F 89% 30.24 in 10.0 mi Calm Calm - N/A   Clear
3:53 AM 26.1 °F 24.1 °F 92% 30.22 in 10.0 mi Calm Calm - N/A   Clear
4:53 AM 26.1 °F 24.1 °F 92% 30.22 in 10.0 mi Calm Calm - N/A   Clear
5:53 AM 26.1 °F 24.1 °F 92% 30.23 in 10.0 mi Calm Calm - N/A   Clear
6:53 AM 27.0 °F 25.0 °F 92% 30.24 in 10.0 mi Calm Calm - N/A   Clear
7:53 AM 28.9 °F 26.1 °F 89% 30.25 in 10.0 mi Calm Calm - N/A   Clear
8:53 AM 34.0 °F 30.0 °F 85% 30.25 in 10.0 mi Calm Calm - N/A   Clear
9:53 AM 50.0 °F 30.9 °F 48% 30.21 in 10.0 mi Calm Calm - N/A   Clear
10:53 AM 52.0 °F 25.0 °F 35% 30.25 in 10.0 mi SW 8.1 mph - N/A   Overcast
11:53 AM 52.0 °F 26.1 °F 37% 30.21 in 10.0 mi Calm Calm - N/A   Clear
12:53 PM 53.1 °F 26.1 °F 35% 30.15 in 10.0 mi SE 3.5 mph - N/A   Mostly Cloudy
1:53 PM 54.0 °F 28.0 °F 37% 30.11 in 10.0 mi Calm Calm - N/A   Mostly Cloudy
2:53 PM 53.1 °F 28.0 °F 38% 30.07 in 10.0 mi SE 6.9 mph - N/A   Overcast
3:53 PM 52.0 °F 30.0 °F 43% 30.06 in 10.0 mi SE 4.6 mph - N/A   Scattered Clouds
4:53 PM 52.0 °F 30.0 °F 43% 30.03 in 10.0 mi SE 4.6 mph - N/A   Scattered Clouds
5:53 PM 50.0 °F 34.0 °F 54% 30.10 in 10.0 mi Calm Calm - 0.00 in Rain Light Rain
6:53 PM 48.0 °F 39.9 °F 74% 30.05 in 10.0 mi ESE 3.5 mph - 0.04 in   Overcast
7:53 PM 48.0 °F 39.9 °F 74% 30.02 in 10.0 mi East 4.6 mph - N/A   Overcast
8:53 PM 48.9 °F 39.0 °F 69% 30.00 in 10.0 mi ESE 3.5 mph - N/A   Overcast
9:15 PM 48.2 °F 39.2 °F 71% 29.98 in 10.0 mi Variable 3.5 mph - N/A   Overcast
9:53 PM 48.9 °F 41.0 °F 74% 29.98 in 10.0 mi Variable 5.8 mph - 0.00 in   Overcast
10:53 PM 48.0 °F 43.0 °F 83% 29.93 in 10.0 mi Variable 4.6 mph - 0.00 in Rain Light Rain
11:53 PM 50.0 °F 46.0 °F 86% 29.92 in 6.0 mi SSE 8.1 mph - 0.03 in Rain Light Rain